Printer-friendly version

IAU Minor Planet Center

Minor Planet Center

MPEC 2001-Q64: 2001 QM153

The following Minor Planet Electronic Circular may be linked-to from your own Web pages, but must not otherwise be redistributed electronically.


Read MPEC 2001-Q63 Read MPEC 2001-Q65


M.P.E.C. 2001-Q64                                Issued 2001 Aug. 28, 17:10 UT

     The Minor Planet Electronic Circulars contain information on unusual
         minor planets and routine data on comets.  They are published
   on behalf of Commission 20 of the International Astronomical Union by the
          Minor Planet Center, Smithsonian Astrophysical Observatory,
                          Cambridge, MA 02138, U.S.A.

             Prepared using the Tamkin Foundation Computer Network

                              MPC@CFA.HARVARD.EDU
          URL http://cfa-www.harvard.edu/iau/mpc.html  ISSN 1523-6714

                                  2001 QM153

Observations:
     K01QF3M* C2001 08 26.40905 03 34 19.36 +45 17 47.5          18.6        704
     K01QF3M  C2001 08 26.43554 03 34 25.03 +45 18 38.1          19.2        704
     K01QF3M  C2001 08 26.44877 03 34 27.71 +45 19 02.7          19.4        704
     K01QF3M  C2001 08 26.46199 03 34 30.63 +45 19 27.9          19.2        704
     K01QF3M  C2001 08 27.08503 03 36 46.61 +45 38 51.9                      557
     K01QF3M  C2001 08 27.09130 03 36 47.96 +45 39 03.5                      557
     K01QF3M  C2001 08 27.09833 03 36 49.47 +45 39 17.3          19.3 V      557
     K01QF3M  C2001 08 27.10493 03 36 50.87 +45 39 29.5          18.2 R      046
     K01QF3M  C2001 08 27.10705 03 36 51.36 +45 39 34.1                      046
     K01QF3M  C2001 08 27.11250 03 36 52.58 +45 39 44.1                      046
     K01QF3M  C2001 08 27.11354 03 36 52.77 +45 39 45.9                      046
     K01QF3M  C2001 08 27.11458 03 36 53.07 +45 39 47.8          18.3 R      046
     K01QF3M  C2001 08 27.39131 03 37 54.07 +45 48 25.9          19.0        704
     K01QF3M  C2001 08 27.40467 03 37 56.91 +45 48 51.6          19.2        704
     K01QF3M  C2001 08 27.41815 03 37 59.82 +45 49 17.0          19.2        704
     K01QF3M 1C2001 08 27.42892 03 38 02.21 +45 49 34.0                      658
     K01QF3M  C2001 08 27.43149 03 38 02.74 +45 49 42.1          19.5        704
     K01QF3M 1C2001 08 27.44021 03 38 04.64 +45 49 55.5                      658
     K01QF3M 1C2001 08 27.44436 03 38 05.58 +45 50 03.1                      658
     K01QF3M  C2001 08 27.44486 03 38 05.60 +45 50 07.5          19.2        704

Observer details:
046 Klet.  Observers J. Ticha, M. Tichy, P. Jelinek.  0.57-m f/5.2
    reflector + CCD.
557 Ondrejov.  Observer P. Kusnirak.  0.65-m f/3.6 reflector + CCD.
658 National Research Council of Canada.  Observer D. D. Balam.  1.82-m
    Plaskett reflector + CCD.
704 Lincoln Laboratory ETS, New Mexico.  Observers M. Blythe, F. Shelly,
    M. Bezpalko, R. Huber, L. Manguso, S. Adams.  Measurers J. Stuart,
    R. Sayer, J. B. Evans, H. Viggh.  1.0-m f/2.15 reflector + CCD.

Orbital elements:
2001 QM153
Epoch 2001 Aug. 19.0 TT = JDT 2452140.5                 Spahr
M 316.29900              (2000.0)            P               Q
n   0.53350785     Peri.  109.78629     +0.36121343     -0.90405707
a   1.5055973      Node   316.75308     +0.68081785     +0.42312201
e   0.1724983      Incl.   19.48047     +0.63719064     +0.06040348
P   1.85           H   16.7           G   0.15
From 20 observations 2001 Aug. 26-27.

Ephemeris:
2001 QM153               a,e,i = 1.51, 0.17, 19                  q = 1.2459
Date    TT    R. A. (2000) Decl.     Delta      r     Elong.  Phase     V
2001 08 19    03 08.77   +41 19.9    0.889    1.344    89.7    48.9    18.9
2001 08 29    03 43.85   +46 38.1    0.838    1.323    91.0    49.7    18.8
2001 09 08    04 24.04   +51 27.7    0.794    1.305    92.0    50.5    18.7
2001 09 18    05 09.97   +55 32.6    0.756    1.288    92.9    51.2    18.5
2001 09 28    06 01.12   +58 36.5    0.722    1.274    93.9    51.7    18.4
2001 10 08    06 55.34   +60 28.9    0.690    1.262    94.9    52.1    18.3
2001 10 18    07 48.65   +61 09.9    0.660    1.254    96.3    52.2    18.2
2001 10 28    08 36.71   +60 50.7    0.628    1.248    98.1    52.0    18.1
2001 11 07    09 16.68   +59 49.1    0.596    1.246   100.5    51.4    18.0
2001 11 17    09 47.17   +58 24.1    0.560    1.247   103.8    50.4    17.8
2001 11 27    10 07.53   +56 49.2    0.522    1.251   108.0    48.6    17.6
2001 12 07    10 17.29   +55 10.3    0.482    1.259   113.6    45.8    17.4
2001 12 17    10 15.34   +53 24.1    0.442    1.269   120.8    41.7    17.1
2001 12 27    10 00.58   +51 10.2    0.405    1.282   130.1    35.9    16.7
2002 01 06    09 33.81   +47 50.1    0.375    1.298   141.4    28.2    16.4
2002 01 16    08 59.67   +42 43.4    0.359    1.316   153.9    19.2    16.0
2002 01 26    08 26.59   +35 50.2    0.363    1.336   162.9    12.5    15.9
2002 02 05    08 01.52   +28 16.4    0.389    1.357   159.3    14.9    16.1
2002 02 15    07 46.50   +21 22.1    0.437    1.380   148.6    21.9    16.7
2002 02 25    07 40.56   +15 46.6    0.502    1.403   137.8    28.3    17.2
2002 03 07    07 41.58   +11 29.0    0.581    1.427   128.4    33.0    17.7
2002 03 17    07 47.70   +08 12.2    0.668    1.452   120.3    36.3    18.1
2002 03 27    07 57.60   +05 37.4    0.762    1.476   113.4    38.3    18.5
2002 04 06    08 10.21   +03 29.6    0.860    1.501   107.3    39.6    18.8
2002 04 16    08 24.85   +01 38.3    0.961    1.525   101.8    40.1    19.1
2002 04 26    08 41.03   -00 04.5    1.063    1.548    96.8    40.2    19.4
2002 05 06    08 58.37   -01 43.5    1.166    1.571    92.2    39.9    19.6
2002 05 16    09 16.62   -03 22.0    1.269    1.593    87.9    39.4    19.8
2002 05 26    09 35.61   -05 02.3    1.372    1.614    83.7    38.6    20.0
2002 06 05    09 55.18   -06 45.5    1.473    1.634    79.8    37.7    20.1
2002 06 15    10 15.27   -08 32.0    1.573    1.653    76.0    36.6    20.3
2002 06 25    10 35.82   -10 22.0    1.670    1.670    72.3    35.4    20.4
2002 07 05    10 56.79   -12 14.9    1.765    1.686    68.7    34.2    20.5
2002 07 15    11 18.19   -14 10.4    1.858    1.701    65.1    32.8    20.6
2002 07 25    11 40.04   -16 07.4    1.948    1.715    61.5    31.4    20.7
2002 08 04    12 02.36   -18 04.9    2.034    1.726    58.0    29.9    20.7
2002 08 14    12 25.19   -20 01.6    2.117    1.737    54.5    28.3    20.8

Timothy B. Spahr             (C) Copyright 2001 MPC           M.P.E.C. 2001-Q64

Read MPEC 2001-Q63 Read MPEC 2001-Q65


Our Web policy. Index to the CBAT/MPC/ICQ pages.


Valid HTML 4.01!